sat.trackr.live / text

‹ back to catalog

GEESAT-1 02

NORAD 52786 · 2022-058B

PAYLOAD ACTIVE UNKNOWN

§ Identity

Operator
Country
PRC
Launch date
2022-06-02
Launch site
XICLF
Launch vehicle
Mass (kg)
RCS (m²)

External: N2YO · Heavens-Above · Gunter

§ Orbital elements

Epoch: 2026-05-24T22:19:57.208800Z

Period
97.21 min
Inclination
50.0016°
Eccentricity
0.0023223
Mean motion
14.81289397 rev/d
Perigee alt
609.0 km
Apogee alt
641.5 km
Semi-major
7,003.4 km
B*
2.3275e-4
RAAN
310.1435°
Arg perigee
162.7287°
Mean anomaly
197.4445°
Rev number
21,648

§ Raw data

GEESAT-1 021 52786U 22058B   26144.93052325  .00001616  00000+0  23275-3 0  99962 52786  50.0016 310.1435 0023223 162.7287 197.4445 14.81289397216481

JSON: /api/v1/satellites/52786 · /tle

For live sub-satellite position, see the globe view (requires WebGL).

§ Visibility from observer

Set your observer location to see the next 7 days of passes ≥ 10°. The values pass through the URL so the page stays shareable.

No JS? Fill the form by hand. The geolocation button needs JavaScript.